Atka, AK

9:03 PM HDT on May 27, 2017 (GMT -0900)
Atka

Weather History for PAAK - October, 2012

Change the Weather History Date:

Saturday, October 27, 2012

  Actual Average (PADK) Record (PADK)
Temperature  
Mean Temperature 40 °F -  
Max Temperature 44 °F 45 °F 53 °F (1997)
Min Temperature 35 °F 36 °F 31 °F (1961)
Degree Days  
Heating Degree Days 26    
Moisture  
Dew Point 30 °F    
Average Humidity 65    
Maximum Humidity 75    
Minimum Humidity 53    
Precipitation  
Precipitation 0.00 in - - ()
Sea Level Pressure  
Sea Level Pressure 29.99 in    
Wind  
Wind Speed 6 mph (SSW)    
Max Wind Speed 16 mph    
Max Gust Speed 23 mph    
Visibility 10 miles    
Events      
Averages and records for this station are not official NWS values.
T = Trace of Precipitation, MM = Missing Value Source: NWS Daily Summary

Daily Weather History Graph

Daily Weather History Graph

Search for Another Location

Airport or City:

Trip Planner

Search our weather history database for the weather conditions in past years. The results will help you decide how hot, cold, wet, or windy it might be!

Date:

Astronomy

Oct. 27, 2012 Rise Set
Actual Time 9:24 AM HDT 7:15 PM HDT
Civil Twilight 8:49 AM HDT 7:51 PM HDT
Nautical Twilight 8:09 AM HDT 8:30 PM HDT
Astronomical Twilight 7:30 AM HDT 9:10 PM HDT
Moon 6:15 PM HDT (10/27) 7:24 AM HDT (10/27)
Length of Visible Light 11h 01m
Length of Day
9h 51m
Waxing Gibbous, 96% of the Moon is Illuminated
Oct 27
Waxing Gibbous
Oct 29
Full
Nov 6
Last Quarter
Nov 13
New
Nov 20
First Quarter

Hourly Weather History & Observations

Time (HDT) Temp. Windchill Dew Point Humidity Pressure Visibility Wind Dir Wind Speed Gust Speed Precip Events Conditions
12:16 AM 42.8 °F 39.3 °F 32.0 °F 66% 30.01 in 10.0 mi NNE 5.8 mph - N/A   Overcast
12:36 AM 42.8 °F 41.1 °F 32.0 °F 66% 30.01 in 10.0 mi NE 3.5 mph - N/A   Overcast
12:56 AM 42.8 °F - 32.0 °F 66% 30.01 in 10.0 mi Calm Calm - N/A   Overcast
1:16 AM 39.2 °F 35.9 °F 32.0 °F 75% 30.00 in 10.0 mi SW 4.6 mph - N/A   Overcast
1:36 AM 42.8 °F 38.0 °F 30.2 °F 61% 30.00 in 10.0 mi SSE 8.1 mph - N/A   Scattered Clouds
1:56 AM 42.8 °F 37.0 °F 32.0 °F 66% 30.00 in 10.0 mi ENE 10.4 mph 16.1 mph N/A   Partly Cloudy
2:16 AM 41.0 °F - 30.2 °F 65% 30.01 in 10.0 mi Calm Calm - N/A   Scattered Clouds
2:36 AM 41.0 °F 35.2 °F 30.2 °F 65% 30.00 in 10.0 mi SW 9.2 mph - N/A   Partly Cloudy
2:56 AM 42.8 °F 36.2 °F 30.2 °F 61% 29.99 in 10.0 mi South 12.7 mph - N/A   Mostly Cloudy
3:16 AM 42.8 °F 39.3 °F 32.0 °F 66% 29.99 in 10.0 mi East 5.8 mph - N/A   Scattered Clouds
3:36 AM 42.8 °F 38.0 °F 30.2 °F 61% 29.99 in 10.0 mi SW 8.1 mph 19.6 mph N/A   Scattered Clouds
3:56 AM 42.8 °F 37.5 °F 30.2 °F 61% 30.00 in 10.0 mi South 9.2 mph - N/A   Mostly Cloudy
4:16 AM 42.8 °F 35.1 °F 32.0 °F 66% 29.99 in 10.0 mi East 16.1 mph 23.0 mph N/A   Partly Cloudy
4:36 AM 41.0 °F 34.3 °F 32.0 °F 70% 29.99 in 10.0 mi SW 11.5 mph - N/A   Clear
4:56 AM 42.8 °F 39.3 °F 32.0 °F 66% 29.99 in 10.0 mi SW 5.8 mph 17.3 mph N/A   Mostly Cloudy
5:16 AM 42.8 °F 37.0 °F 30.2 °F 61% 29.98 in 10.0 mi ESE 10.4 mph 21.9 mph N/A   Scattered Clouds
5:36 AM 41.0 °F 37.1 °F 30.2 °F 65% 30.00 in 10.0 mi West 5.8 mph - N/A   Partly Cloudy
5:56 AM 42.8 °F 38.0 °F 30.2 °F 61% 29.99 in 10.0 mi NE 8.1 mph - N/A   Scattered Clouds
6:16 AM 42.8 °F - 30.2 °F 61% 29.99 in 10.0 mi Calm Calm - N/A   Partly Cloudy
6:36 AM 39.2 °F 35.9 °F 30.2 °F 70% 29.99 in 10.0 mi WSW 4.6 mph - N/A   Clear
6:56 AM 37.4 °F 32.1 °F 30.2 °F 75% 29.99 in 10.0 mi WNW 6.9 mph - N/A   Clear
7:16 AM 39.2 °F 35.9 °F 30.2 °F 70% 29.99 in 10.0 mi South 4.6 mph - N/A   Clear
7:36 AM 39.2 °F 34.2 °F 30.2 °F 70% 29.99 in 10.0 mi WSW 6.9 mph - N/A   Clear
7:56 AM 39.2 °F 32.0 °F 30.2 °F 70% 29.99 in 10.0 mi WSW 11.5 mph - N/A   Clear
8:16 AM 39.2 °F 33.0 °F 30.2 °F 70% 29.98 in 10.0 mi WNW 9.2 mph - N/A   Clear
8:36 AM 37.4 °F 33.8 °F 30.2 °F 75% 29.99 in 10.0 mi SW 4.6 mph - N/A   Clear
8:56 AM 39.2 °F 32.5 °F 30.2 °F 70% 29.99 in 10.0 mi WNW 10.4 mph - N/A   Clear
9:16 AM 37.4 °F 32.8 °F 28.4 °F 70% 30.00 in 10.0 mi WNW 5.8 mph - N/A   Partly Cloudy
9:36 AM 37.4 °F 32.1 °F 30.2 °F 75% 30.00 in 7.0 mi South 6.9 mph - N/A   Scattered Clouds
9:56 AM 39.2 °F 32.5 °F 30.2 °F 70% 30.00 in 0.2 mi SSW 10.4 mph - N/A   Overcast
10:16 AM 39.2 °F 33.0 °F 30.2 °F 70% 30.00 in 10.0 mi WSW 9.2 mph - N/A   Clear
10:36 AM 39.2 °F 35.9 °F 30.2 °F 70% 30.00 in 10.0 mi West 4.6 mph - N/A   Partly Cloudy
10:56 AM 41.0 °F 37.1 °F 28.4 °F 61% 30.01 in 10.0 mi South 5.8 mph - N/A   Scattered Clouds
11:16 AM 42.8 °F 38.0 °F 28.4 °F 57% 30.00 in 10.0 mi ESE 8.1 mph 23.0 mph N/A   Mostly Cloudy
11:36 AM 42.8 °F 37.5 °F 28.4 °F 57% 30.00 in 10.0 mi ESE 9.2 mph 16.1 mph N/A   Partly Cloudy
11:56 AM 42.8 °F 40.1 °F 28.4 °F 57% 30.00 in 10.0 mi SE 4.6 mph - N/A   Partly Cloudy
12:16 PM 42.8 °F 39.3 °F 26.6 °F 53% 30.00 in 10.0 mi South 5.8 mph - N/A   Partly Cloudy
12:36 PM 42.8 °F 38.6 °F 28.4 °F 57% 29.99 in 10.0 mi SSE 6.9 mph - N/A   Partly Cloudy
12:56 PM 42.8 °F 37.0 °F 28.4 °F 57% 29.99 in 10.0 mi SE 10.4 mph - N/A   Partly Cloudy
1:16 PM 44.6 °F 40.2 °F 28.4 °F 53% 29.99 in 10.0 mi SSW 8.1 mph - N/A   Clear
1:36 PM 42.8 °F 36.6 °F 28.4 °F 57% 29.99 in 10.0 mi SSW 11.5 mph 16.1 mph N/A   Scattered Clouds
1:56 PM 42.8 °F 38.0 °F 28.4 °F 57% 29.98 in 10.0 mi SSE 8.1 mph - N/A   Scattered Clouds
2:16 PM 44.6 °F 43.1 °F 28.4 °F 53% 29.98 in 10.0 mi ESE 3.5 mph - N/A   Partly Cloudy
2:36 PM 44.6 °F 42.2 °F 28.4 °F 53% 29.98 in 10.0 mi SW 4.6 mph - N/A   Clear
2:56 PM 44.6 °F 41.4 °F 28.4 °F 53% 29.98 in 10.0 mi WSW 5.8 mph - N/A   Clear
3:16 PM 44.6 °F 42.2 °F 28.4 °F 53% 29.98 in 10.0 mi WSW 4.6 mph - N/A   Partly Cloudy
3:36 PM 44.6 °F 40.7 °F 28.4 °F 53% 29.98 in 10.0 mi North 6.9 mph - N/A   Mostly Cloudy
3:56 PM 44.6 °F 43.1 °F 28.4 °F 53% 29.98 in 10.0 mi NNW 3.5 mph - N/A   Overcast
4:16 PM 44.6 °F 42.2 °F 28.4 °F 53% 29.98 in 10.0 mi NNE 4.6 mph - N/A   Overcast
4:36 PM 42.8 °F 37.0 °F 30.2 °F 61% 29.98 in 10.0 mi NE 10.4 mph - N/A   Overcast
4:56 PM 42.8 °F 37.5 °F 30.2 °F 61% 29.98 in 10.0 mi ENE 9.2 mph - N/A   Overcast
5:16 PM 42.8 °F 37.5 °F 30.2 °F 61% 29.98 in 10.0 mi ENE 9.2 mph - N/A   Overcast
5:36 PM 42.8 °F 40.1 °F 28.4 °F 57% 29.98 in 10.0 mi NE 4.6 mph - N/A   Overcast
5:56 PM 42.8 °F 37.5 °F 30.2 °F 61% 29.98 in 9.0 mi ENE 9.2 mph - N/A   Overcast
6:16 PM 42.8 °F 39.3 °F 30.2 °F 61% 29.98 in 10.0 mi ESE 5.8 mph - N/A   Mostly Cloudy
6:36 PM 41.0 °F 36.4 °F 30.2 °F 65% 29.98 in 10.0 mi ESE 6.9 mph - N/A   Mostly Cloudy
6:56 PM 41.0 °F - 30.2 °F 65% 29.98 in 10.0 mi Calm Calm - N/A   Overcast
7:16 PM 39.2 °F 33.6 °F 30.2 °F 70% 29.98 in 10.0 mi SW 8.1 mph - N/A   Scattered Clouds
7:36 PM 39.2 °F 33.6 °F 30.2 °F 70% 29.98 in 10.0 mi SW 8.1 mph - N/A   Partly Cloudy
7:56 PM 37.4 °F 33.8 °F 30.2 °F 75% 29.98 in 10.0 mi WSW 4.6 mph - N/A   Partly Cloudy
8:16 PM 39.2 °F 35.0 °F 30.2 °F 70% 29.99 in 10.0 mi SSW 5.8 mph - N/A   Mostly Cloudy
8:36 PM 37.4 °F 32.1 °F 28.4 °F 70% 29.99 in 10.0 mi SW 6.9 mph - N/A   Overcast
8:56 PM 37.4 °F 31.4 °F 30.2 °F 75% 30.00 in 10.0 mi SW 8.1 mph - N/A   Overcast
9:16 PM 37.4 °F 32.1 °F 30.2 °F 75% 30.00 in 10.0 mi SW 6.9 mph - N/A   Mostly Cloudy
9:36 PM 37.4 °F 34.9 °F 30.2 °F 75% 30.00 in 10.0 mi SSW 3.5 mph - N/A   Scattered Clouds
9:56 PM 35.6 °F - 28.4 °F 75% 30.00 in 10.0 mi Calm Calm - N/A   Mostly Cloudy
10:16 PM 35.6 °F - 28.4 °F 75% 30.01 in 10.0 mi Calm Calm - N/A   Overcast
10:36 PM 37.4 °F 32.8 °F 30.2 °F 75% 30.01 in 10.0 mi NW 5.8 mph - N/A   Overcast
10:56 PM 37.4 °F 33.8 °F 30.2 °F 75% 30.01 in 10.0 mi West 4.6 mph - N/A   Overcast
11:16 PM 37.4 °F 34.9 °F 30.2 °F 75% 30.01 in 10.0 mi West 3.5 mph - N/A   Overcast
11:36 PM 37.4 °F - 30.2 °F 75% 30.01 in 10.0 mi Calm Calm - N/A   Overcast
11:56 PM 39.2 °F 37.0 °F 30.2 °F 70% 30.01 in 10.0 mi SE 3.5 mph - N/A   Overcast